Audubon, IA

1:27 AM CDT on August 19, 2017 (GMT -0500)
Audubon County

Weather History for KADU - March, 2014

Change the Weather History Date:

Thursday, March 27, 2014

  Actual Average Record
Temperature  
Mean Temperature 42 °F -  
Max Temperature 51 °F 56 °F 79 °F (1989)
Min Temperature 33 °F 30 °F 7 °F (1955)
Degree Days  
Heating Degree Days 23    
Moisture  
Dew Point 37 °F    
Average Humidity 82    
Maximum Humidity 87    
Minimum Humidity 75    
Precipitation  
Precipitation 0.23 in - - ()
Sea Level Pressure  
Sea Level Pressure 29.48 in    
Wind  
Wind Speed 15 mph (SSW)    
Max Wind Speed 23 mph    
Max Gust Speed 31 mph    
Visibility 5 miles    
Events Rain , Snow    
Averages and records for this station are not official NWS values.
T = Trace of Precipitation, MM = Missing Value Source: NWS Daily Summary

Daily Weather History Graph

Daily Weather History Graph

Search for Another Location

Airport or City:

Trip Planner

Search our weather history database for the weather conditions in past years. The results will help you decide how hot, cold, wet, or windy it might be!

Date:

Astronomy

Mar. 27, 2014 Rise Set
Actual Time 7:11 AM CDT 7:39 PM CDT
Civil Twilight 6:43 AM CDT 8:07 PM CDT
Nautical Twilight 6:10 AM CDT 8:40 PM CDT
Astronomical Twilight 5:36 AM CDT 9:14 PM CDT
Moon 5:05 AM CDT (3/27) 4:25 PM CDT (3/27)
Length of Visible Light 13h 24m
Length of Day
12h 28m
Waning Crescent, 13% of the Moon is Illuminated
Mar 27
Waning Crescent
Mar 30
New
Apr 7
First Quarter
Apr 15
Full
Apr 22
Last Quarter

Hourly Weather History & Observations

Time (CDT) Temp. Windchill Dew Point Humidity Pressure Visibility Wind Dir Wind Speed Gust Speed Precip Events Conditions
12:15 AM 41.0 °F 32.2 °F 35.6 °F 81% 29.63 in 4.0 mi South 18.4 mph 25.3 mph N/A Rain Light Rain
12:35 AM 41.0 °F 31.1 °F 35.6 °F 81% 29.62 in 4.0 mi South 23.0 mph 29.9 mph N/A Rain Rain
12:55 AM 41.0 °F 31.6 °F 35.6 °F 81% 29.61 in 4.0 mi South 20.7 mph 31.1 mph N/A   Drizzle
1:15 AM 41.0 °F 32.5 °F 35.6 °F 81% 29.60 in 4.0 mi South 17.3 mph 25.3 mph N/A Rain Rain
1:35 AM 41.0 °F 32.5 °F 35.6 °F 81% 29.59 in 4.0 mi South 17.3 mph 25.3 mph N/A   Drizzle
1:55 AM 41.0 °F 31.9 °F 35.6 °F 81% 29.58 in 5.0 mi South 19.6 mph 24.2 mph N/A   Light Drizzle
2:15 AM 41.0 °F 31.1 °F 35.6 °F 81% 29.56 in 5.0 mi South 23.0 mph 31.1 mph N/A   Light Drizzle
2:35 AM 41.0 °F 31.9 °F 35.6 °F 81% 29.55 in 4.0 mi South 19.6 mph 25.3 mph N/A   Light Drizzle
2:55 AM 41.0 °F 32.8 °F 35.6 °F 81% 29.54 in 4.0 mi South 16.1 mph 25.3 mph N/A   Light Drizzle
3:15 AM 41.0 °F 32.8 °F 35.6 °F 81% 29.53 in 4.0 mi South 16.1 mph 23.0 mph N/A   Light Drizzle
3:35 AM 41.0 °F 33.5 °F 35.6 °F 81% 29.53 in 3.0 mi South 13.8 mph 29.9 mph N/A   Haze
3:55 AM 41.0 °F 32.8 °F 35.6 °F 81% 29.52 in 3.0 mi South 16.1 mph 24.2 mph N/A Rain Rain
4:15 AM 41.0 °F 32.8 °F 35.6 °F 81% 29.51 in 3.0 mi South 16.1 mph 23.0 mph N/A   Light Drizzle
4:35 AM 41.0 °F 33.9 °F 35.6 °F 81% 29.51 in 3.0 mi South 12.7 mph 23.0 mph N/A   Light Drizzle
4:55 AM 41.0 °F 33.9 °F 37.4 °F 87% 29.50 in 3.0 mi South 12.7 mph 19.6 mph N/A   Light Drizzle
5:15 AM 42.8 °F 36.6 °F 37.4 °F 81% 29.50 in 3.0 mi South 11.5 mph 19.6 mph N/A   Light Drizzle
5:35 AM 42.8 °F 38.0 °F 37.4 °F 81% 29.50 in 2.5 mi South 8.1 mph - N/A   Drizzle
5:55 AM 42.8 °F 37.5 °F 37.4 °F 81% 29.49 in 2.5 mi South 9.2 mph - N/A   Drizzle
6:15 AM 42.8 °F 36.6 °F 37.4 °F 81% 29.48 in 2.5 mi South 11.5 mph - N/A Rain Rain
6:35 AM 42.8 °F 36.6 °F 37.4 °F 81% 29.47 in 2.5 mi SSE 11.5 mph 16.1 mph N/A   Drizzle
6:55 AM 42.8 °F 37.5 °F 37.4 °F 81% 29.46 in 3.0 mi SSE 9.2 mph - 0.01 in   Drizzle
7:15 AM 42.8 °F 37.5 °F 37.4 °F 81% 29.45 in 3.0 mi SSE 9.2 mph - N/A   Light Drizzle
7:35 AM 42.8 °F 36.6 °F 37.4 °F 81% 29.45 in 4.0 mi SSE 11.5 mph - N/A   Overcast
7:55 AM 42.8 °F 36.2 °F 37.4 °F 81% 29.45 in 2.5 mi South 12.7 mph - N/A   Haze
8:15 AM 42.8 °F 36.6 °F 37.4 °F 81% 29.44 in 2.0 mi SSE 11.5 mph - N/A   Drizzle
8:35 AM 42.8 °F 37.5 °F 37.4 °F 81% 29.43 in 2.0 mi SSE 9.2 mph - 0.01 in Rain Light Rain
8:55 AM 42.8 °F 37.0 °F 39.2 °F 87% 29.42 in 2.5 mi SSE 10.4 mph - 0.01 in   Light Drizzle
9:15 AM 44.6 °F 39.7 °F 39.2 °F 81% 29.41 in 2.0 mi South 9.2 mph - N/A Rain Light Rain
9:35 AM 44.6 °F 39.2 °F 39.2 °F 81% 29.40 in 2.0 mi South 10.4 mph - 0.01 in   Heavy Drizzle
9:55 AM 44.6 °F 39.2 °F 39.2 °F 81% 29.39 in 2.5 mi SSE 10.4 mph - 0.01 in   Drizzle
10:15 AM 44.6 °F 38.8 °F 41.0 °F 87% 29.39 in 3.0 mi South 11.5 mph 16.1 mph N/A   Light Drizzle
10:35 AM 46.4 °F 41.9 °F 41.0 °F 81% 29.38 in 2.5 mi South 9.2 mph - 0.01 in Rain Heavy Rain
10:55 AM 46.4 °F 41.9 °F 42.8 °F 87% 29.37 in 4.0 mi South 9.2 mph 20.7 mph 0.01 in   Light Drizzle
11:15 AM 48.2 °F - 42.8 °F 82% 29.36 in 4.0 mi South 13.8 mph 18.4 mph N/A   Haze
11:35 AM 48.2 °F - 42.8 °F 82% 29.36 in 2.5 mi South 10.4 mph 18.4 mph N/A   Drizzle
11:55 AM 48.2 °F - 44.6 °F 87% 29.35 in 2.5 mi South 11.5 mph 19.6 mph N/A   Drizzle
12:15 PM 48.2 °F - 44.6 °F 87% 29.34 in 2.5 mi South 13.8 mph 19.6 mph 0.01 in   Drizzle
12:35 PM 48.2 °F - 44.6 °F 87% 29.34 in 3.0 mi South 15.0 mph 19.6 mph 0.01 in   Drizzle
12:55 PM 50.0 °F - 44.6 °F 82% 29.33 in 3.0 mi South 13.8 mph 17.3 mph 0.01 in Rain Rain
1:15 PM 50.0 °F - 46.4 °F 87% 29.32 in 3.0 mi South 11.5 mph - N/A Rain Rain
1:35 PM 51.8 °F - 46.4 °F 82% 29.31 in 4.0 mi SSE 10.4 mph - N/A   Haze
1:55 PM 51.8 °F - 46.4 °F 82% 29.30 in 5.0 mi South 13.8 mph 19.6 mph N/A   Haze
2:15 PM 51.8 °F - 46.4 °F 82% 29.29 in 4.0 mi South 11.5 mph 17.3 mph N/A Rain Rain
2:35 PM 51.8 °F - 46.4 °F 82% 29.29 in 5.0 mi South 8.1 mph - N/A   Drizzle
2:55 PM 51.8 °F - 46.4 °F 82% 29.28 in 3.0 mi South 9.2 mph - N/A   Heavy Drizzle
3:15 PM 51.8 °F - 46.4 °F 82% 29.28 in 5.0 mi South 9.2 mph - 0.01 in Rain Light Rain
3:35 PM 48.2 °F - 44.6 °F 87% 29.29 in 4.0 mi NNW 13.8 mph 21.9 mph 0.04 in Rain Rain
3:55 PM 46.4 °F 39.5 °F 42.8 °F 87% 29.30 in 7.0 mi NNW 17.3 mph 25.3 mph 0.05 in Rain Rain
4:15 PM 46.4 °F 40.1 °F 42.8 °F 87% 29.30 in 7.0 mi NW 15.0 mph - N/A Rain Rain
4:35 PM 46.4 °F 39.5 °F 41.0 °F 81% 29.32 in 2.0 mi NW 17.3 mph 24.2 mph 0.06 in Rain Light Rain
4:55 PM 44.6 °F 38.1 °F 39.2 °F 81% 29.34 in 5.0 mi NW 13.8 mph 23.0 mph 0.07 in Rain Light Rain
5:15 PM 44.6 °F 37.8 °F 39.2 °F 81% 29.36 in 3.0 mi NW 15.0 mph 23.0 mph 0.01 in Rain Rain
5:35 PM 41.0 °F 33.1 °F 37.4 °F 87% 29.38 in 3.0 mi WNW 15.0 mph 26.5 mph 0.02 in Rain Rain
5:55 PM 41.0 °F 32.5 °F 37.4 °F 87% 29.40 in 5.0 mi NW 17.3 mph 24.2 mph 0.05 in Rain Rain
6:15 PM 41.0 °F 31.6 °F 35.6 °F 81% 29.43 in 10.0 mi NW 20.7 mph 28.8 mph N/A Rain Rain
6:35 PM 39.2 °F 30.5 °F 35.6 °F 87% 29.46 in 10.0 mi NW 16.1 mph 24.2 mph N/A   Clear
7:15 PM 37.4 °F 28.5 °F 32.0 °F 81% 29.52 in 10.0 mi NW 15.0 mph 24.2 mph N/A   Drizzle
7:55 PM 35.6 °F 25.5 °F 30.2 °F 81% 29.57 in 10.0 mi WNW 17.3 mph 24.2 mph 0.01 in Snow Light Snow
8:15 PM 33.8 °F 23.9 °F 28.4 °F 81% 29.60 in 10.0 mi NW 15.0 mph 25.3 mph N/A   Clear
8:35 PM 33.8 °F 24.8 °F 28.4 °F 81% 29.62 in 10.0 mi WNW 12.7 mph 24.2 mph N/A   Clear
8:55 PM 33.8 °F 23.5 °F 28.4 °F 81% 29.64 in 10.0 mi NW 16.1 mph 25.3 mph N/A   Clear
9:15 PM 33.8 °F 24.3 °F 28.4 °F 81% 29.66 in 10.0 mi NW 13.8 mph 26.5 mph N/A   Clear
9:35 PM 33.8 °F 23.9 °F 28.4 °F 81% 29.68 in 10.0 mi NW 15.0 mph 25.3 mph N/A   Clear
9:55 PM 33.8 °F 23.2 °F 28.4 °F 81% 29.70 in 10.0 mi NW 17.3 mph 26.5 mph N/A   Clear
10:15 PM 33.8 °F 22.8 °F 28.4 °F 81% 29.72 in 10.0 mi NW 18.4 mph 25.3 mph N/A   Clear
10:35 PM 33.8 °F 22.5 °F 28.4 °F 81% 29.73 in 10.0 mi NW 19.6 mph 25.3 mph N/A   Clear
10:55 PM 33.8 °F 23.5 °F 28.4 °F 81% 29.74 in 10.0 mi NW 16.1 mph 25.3 mph N/A   Clear
11:15 PM 33.8 °F 23.5 °F 28.4 °F 81% 29.76 in 10.0 mi NW 16.1 mph 25.3 mph N/A   Clear
11:35 PM 33.8 °F 23.2 °F 28.4 °F 81% 29.77 in 10.0 mi NNW 17.3 mph - N/A   Clear
11:55 PM 33.8 °F 24.3 °F 26.6 °F 75% 29.78 in 10.0 mi NW 13.8 mph 20.7 mph N/A   Clear